[[{"header":{"parameterUnit":"m.s-1","parameterCategory":1,"la1":30.2991,"la2":30.254,"lo1":-89.0895,"lo2":-89.0444,"dy":0.0017,"dx":0.0017,"nx":28,"ny":28,"refTime":"2024-03-09T09:00:00:Z","depth":0,"parameterNumber":2,"parameterNumberName":"U-component_of_WINDS"},"data":[0,0,0,0,0,0,0,0,0,0,0,0,0,0,0,0,0,0,0,0,0,0,0,0,0,0,0,0,0,0,0,0,0,0,0,0,0,0,0,0,0,0,0,0,0,0,0,0,0,0,0,0,0,0,0,0,0,0,2.0276,2.0276,0,2.0269,2.0269,2.0268,2.0239,2.0238,2.0238,2.0237,2.0228,2.0229,2.0229,0,0,0,0,0,0,0,0,0,0,0,0,0,2.0266,2.0266,2.0276,2.0276,2.0276,2.0269,2.0269,2.0268,2.0239,2.0238,2.0237,2.0237,2.0228,2.0228,2.0229,0,0,0,0,0,0,0,0,0,0,0,0,0,2.0265,2.0266,2.0276,2.026,2.0259,2.0269,2.0269,2.0268,2.0239,2.0238,2.0237,2.0236,2.0228,2.0228,2.0229,2.0253,0,0,2.0231,2.0231,0,0,0,0,0,0,0,0,2.0265,2.0266,2.0263,2.0262,2.026,2.0254,2.0262,2.0263,2.0239,2.0247,2.0237,2.0236,2.0237,2.0237,2.0238,2.0253,2.0252,2.0231,2.0231,2.0232,2.0232,0,0,0,0,0,0,0,2.0265,2.0266,2.0273,2.0263,2.0261,2.0254,2.0253,2.0262,2.0248,2.0246,2.0244,2.0243,2.0236,2.0237,2.0237,2.0252,2.0231,2.0231,2.0232,2.0232,2.0288,2.0289,0,0,0,0,0,0,2.0268,2.0266,2.0273,2.0273,2.026,2.0255,2.0254,2.0257,2.0248,2.0245,2.0244,2.0242,2.0237,2.0237,2.0237,2.0266,2.0232,2.0232,2.0232,2.0287,2.0288,2.029,0,0,0,0,0,0,2.0268,2.0269,2.0274,2.0269,2.0269,2.0256,2.026,2.0257,2.0258,2.0246,2.0244,2.0248,2.0236,2.0236,2.025,2.0265,2.0232,2.0233,2.0286,2.0287,2.0289,2.0323,0,0,0,0,0,0,2.0267,2.0269,2.0277,2.0269,2.0269,2.0286,2.0261,2.0258,2.0259,2.0256,2.0249,2.0247,2.0235,2.0249,2.025,2.0265,2.0233,2.0284,2.0286,2.0288,2.032,2.0325,2.033,0,0,0,0,0,2.0267,2.0286,2.0278,2.0279,2.028,2.0287,2.0287,2.0274,2.0261,2.0269,2.0262,2.0247,2.0263,2.0251,2.0252,2.0267,2.0283,2.0286,2.0288,2.0318,2.0324,2.033,0,0,0,0,0,0,2.0295,2.0285,2.0275,2.0293,2.0291,2.0282,2.0293,2.0281,2.0283,2.028,2.0263,2.0262,2.0278,2.0274,2.026,2.0291,2.0271,2.0274,2.0293,2.0299,2.0304,2.0304,2.0234,0,0,0,0,0,2.0304,2.0311,2.0301,2.0317,2.0317,2.0305,2.0308,2.0298,2.0296,2.0295,2.0288,2.0287,2.0292,2.0295,2.0299,2.032,2.0318,2.0331,2.0336,2.034,2.0342,2.0355,2.0361,2.0298,2.0298,2.0298,0,0,2.0321,2.0316,2.0321,2.0323,2.0321,2.0329,2.0305,2.0314,2.032,2.0296,2.0309,2.0305,2.0301,2.0319,2.0327,2.0316,2.036,2.0343,2.0346,2.0347,2.0358,2.0364,2.0369,2.03,2.0299,2.0299,0,0,2.0356,2.0353,2.0367,2.0366,2.0363,2.0355,2.0359,2.0352,2.0349,2.0362,2.0345,2.0352,2.036,2.0359,2.036,2.0398,2.0384,2.0399,2.0424,2.0437,2.0442,2.0446,2.0461,2.0466,2.0402,2.0402,2.0402,0,2.0377,2.0389,2.0375,2.0386,2.0388,2.0368,2.0383,2.0382,2.0381,2.0383,2.0371,2.0383,2.0379,2.0397,2.0407,2.0408,2.0412,2.04,2.0442,2.0446,2.045,2.0464,2.0469,2.0404,2.0404,2.0404,2.0404,0,2.0416,2.0424,2.0436,2.0436,2.0439,2.0452,2.0441,2.0446,2.0437,2.043,2.0445,2.044,2.0444,2.0447,2.0437,2.0465,2.0459,2.0445,2.0424,2.0458,2.0471,2.0476,2.0407,2.0406,2.0406,2.0405,0,0,2.0467,2.0461,2.0466,2.0467,2.0464,2.047,2.0482,2.0486,2.0492,2.0492,2.0502,2.0511,2.0499,2.05,2.049,2.0501,2.0534,2.0486,2.0486,2.0496,2.0565,2.0575,2.0582,2.0525,2.0526,2.0527,2.0565,0,2.0501,2.0522,2.0511,2.0534,2.0542,2.0525,2.0536,2.0536,2.0531,2.0537,2.0532,2.0539,2.0522,2.0523,2.0533,2.0527,2.0547,2.0524,2.0535,2.0535,2.0536,2.0588,2.0599,2.0635,2.057,2.0571,2.0572,0,2.0543,2.0547,2.057,2.0568,2.0571,2.0581,2.0585,2.0591,2.0591,2.0587,2.059,2.0578,2.0591,2.0571,2.0589,2.0574,2.0578,2.0576,2.0577,2.0577,2.0555,2.059,2.0647,2.0652,2.0579,2.0578,2.0578,0,2.0579,2.059,2.0606,2.0607,2.0604,2.0612,2.0611,2.061,2.0614,2.0617,2.062,2.0625,2.0628,2.0632,2.0623,2.0609,2.0642,2.0621,2.064,2.064,2.0647,2.0647,2.0705,2.0649,2.0649,2.0649,2.0649,0,2.0618,2.0634,2.0622,2.0632,2.0649,2.0638,2.0655,2.0652,2.0652,2.0661,2.0647,2.0656,2.0643,2.0651,2.0644,2.0661,2.0662,2.0659,2.0657,2.0661,2.0661,2.0663,2.066,2.0651,2.065,2.065,2.065,0,2.0661,2.0654,2.067,2.0667,2.0667,2.068,2.0677,2.0686,2.0682,2.0694,2.0696,2.0688,2.0698,2.0689,2.0697,2.0692,2.0715,2.0709,2.0715,2.0714,2.0733,2.0732,2.0795,2.0803,2.0742,2.0742,2.0743,0,2.0687,2.0698,2.0697,2.0703,2.0703,2.0712,2.0717,2.0706,2.0712,2.0714,2.0723,2.0732,2.0737,2.0753,2.0748,2.0755,2.0749,2.0771,2.075,2.0754,2.0751,2.075,2.0752,2.0775,2.0776,2.0777,2.0777,0,2.0733,2.073,2.0737,2.0743,2.0749,2.0754,2.0757,2.0763,2.0753,2.076,2.0769,2.0774,2.0784,2.0792,2.0798,2.0798,2.0786,2.0784,2.0789,2.0792,2.0796,2.0795,2.0727,2.0782,2.0782,2.0782,2.0781,2.0781,2.0768,2.0778,2.078,2.0789,2.0791,2.0795,2.0804,2.0801,2.0809,2.0817,2.0811,2.0823,2.0824,2.0831,2.0832,2.0842,2.0833,2.0839,2.0841,2.0843,2.0846,2.0795,2.0843,2.0843,2.0843,2.0842,2.0842,0,2.0814,2.0815,2.0824,2.083,2.0837,2.0827,2.0831,2.0838,2.0849,2.0852,2.0859,2.0871,2.088,2.0877,2.0885,2.0894,2.0889,2.0896,2.0895,2.0896,2.0853,2.0849,2.09,2.09,2.09,2.09,2.09,2.09,2.0839,2.0857,2.0854,2.0873,2.0873,2.0886,2.0889,2.0893,2.0895,2.091,2.0918,2.0916,2.0917,2.0926,2.0934,2.0933,2.0937,2.0946,2.0943,2.0904,2.0898,2.0893,2.0889,2.0947,2.0947,2.0985,2.0985,2.0985]},{"header":{"parameterUnit":"m.s-1","parameterCategory":1,"la1":30.2991,"la2":30.254,"lo1":-89.0895,"lo2":-89.0444,"dy":0.0017,"dx":0.0017,"nx":28,"ny":28,"refTime":"2024-03-09T09:00:00:Z","depth":0,"parameterNumber":3,"parameterNumberName":"V-component_of_WINDS"},"data":[0,0,0,0,0,0,0,0,0,0,0,0,0,0,0,0,0,0,0,0,0,0,0,0,0,0,0,0,0,0,0,0,0,0,0,0,0,0,0,0,0,0,0,0,0,0,0,0,0,0,0,0,0,0,0,0,0,0,-5.3051,-5.3052,0,-5.3139,-5.314,-5.3141,-5.3148,-5.3147,-5.3146,-5.3145,-5.3234,-5.3237,-5.324,0,0,0,0,0,0,0,0,0,0,0,0,0,-5.2889,-5.2891,-5.3051,-5.3052,-5.3053,-5.3139,-5.314,-5.3141,-5.3148,-5.3147,-5.3146,-5.3144,-5.3233,-5.3237,-5.3241,0,0,0,0,0,0,0,0,0,0,0,0,0,-5.2966,-5.2892,-5.3051,-5.3067,-5.3069,-5.3139,-5.314,-5.3142,-5.3148,-5.3147,-5.3145,-5.3144,-5.3232,-5.3236,-5.3241,-5.3301,0,0,-5.3256,-5.3258,0,0,0,0,0,0,0,0,-5.2962,-5.2972,-5.3063,-5.3066,-5.3068,-5.3131,-5.3116,-5.3195,-5.3148,-5.3118,-5.3145,-5.3143,-5.3201,-5.3208,-5.3228,-5.3305,-5.3309,-5.3257,-5.326,-5.3262,-5.3263,0,0,0,0,0,0,0,-5.2956,-5.2968,-5.3086,-5.3065,-5.3068,-5.307,-5.3079,-5.3131,-5.3166,-5.3121,-5.3121,-5.3132,-5.3202,-5.3223,-5.323,-5.331,-5.3257,-5.3261,-5.3264,-5.3266,-5.3442,-5.3444,0,0,0,0,0,0,-5.2948,-5.2964,-5.3083,-5.3088,-5.301,-5.3074,-5.3084,-5.3112,-5.3166,-5.3173,-5.3133,-5.3132,-5.3215,-5.3224,-5.3233,-5.3308,-5.3262,-5.3266,-5.3269,-5.344,-5.3442,-5.3444,0,0,0,0,0,0,-5.2944,-5.2958,-5.3079,-5.3026,-5.3042,-5.3078,-5.3109,-5.3115,-5.3136,-5.3175,-5.3182,-5.3148,-5.3215,-5.3226,-5.3284,-5.3311,-5.3269,-5.3273,-5.3438,-5.3441,-5.3443,-5.3456,0,0,0,0,0,0,-5.294,-5.2957,-5.298,-5.3027,-5.3045,-5.3129,-5.3111,-5.3118,-5.3145,-5.3144,-5.3191,-5.3197,-5.3214,-5.3277,-5.3289,-5.3317,-5.3277,-5.3436,-5.3439,-5.3442,-5.3453,-5.3458,-5.3463,0,0,0,0,0,-5.2934,-5.2979,-5.2981,-5.2995,-5.3074,-5.313,-5.3141,-5.316,-5.3147,-5.317,-5.3196,-5.3196,-5.3306,-5.3283,-5.3297,-5.3326,-5.3434,-5.3438,-5.3442,-5.3451,-5.3457,-5.3463,0,0,0,0,0,0,-5.2934,-5.2985,-5.2988,-5.305,-5.3086,-5.3131,-5.3161,-5.3166,-5.3206,-5.3203,-5.3225,-5.3235,-5.3293,-5.3315,-5.3289,-5.3387,-5.3369,-5.3376,-5.3371,-5.3377,-5.3382,-5.3376,-5.3281,0,0,0,0,0,-5.2941,-5.2983,-5.3026,-5.3076,-5.3094,-5.3125,-5.315,-5.3162,-5.32,-5.3215,-5.3244,-5.3281,-5.3324,-5.3352,-5.3393,-5.3456,-5.3467,-5.3484,-5.3488,-5.3492,-5.3498,-5.3535,-5.3543,-5.3457,-5.3457,-5.3457,0,0,-5.2956,-5.299,-5.3014,-5.3077,-5.3106,-5.3149,-5.3137,-5.3183,-5.3215,-5.3221,-5.3279,-5.3302,-5.3344,-5.3406,-5.3434,-5.3426,-5.3524,-5.3497,-5.35,-5.3504,-5.354,-5.3548,-5.3555,-5.346,-5.3459,-5.3459,0,0,-5.3006,-5.3035,-5.3081,-5.3111,-5.3156,-5.3176,-5.3187,-5.3233,-5.3249,-5.3307,-5.3313,-5.3351,-5.3424,-5.3455,-5.348,-5.3544,-5.3546,-5.3556,-5.3582,-5.3618,-5.3624,-5.3631,-5.3654,-5.3662,-5.3562,-5.3562,-5.3562,0,-5.3019,-5.3084,-5.3104,-5.315,-5.3178,-5.3187,-5.3234,-5.3262,-5.3318,-5.3337,-5.3327,-5.342,-5.3449,-5.3519,-5.3534,-5.3554,-5.3568,-5.3551,-5.3622,-5.3628,-5.3634,-5.3657,-5.3666,-5.3563,-5.3563,-5.3563,-5.3563,0,-5.3099,-5.3144,-5.3176,-5.3231,-5.3262,-5.3308,-5.3336,-5.3365,-5.3375,-5.3396,-5.3456,-5.3491,-5.3541,-5.3558,-5.3567,-5.363,-5.3623,-5.3617,-5.3599,-5.3643,-5.3665,-5.3674,-5.3565,-5.3564,-5.3564,-5.3564,0,0,-5.315,-5.3217,-5.3228,-5.3254,-5.3305,-5.334,-5.3387,-5.3437,-5.3462,-5.3501,-5.3541,-5.3604,-5.36,-5.3628,-5.3641,-5.3672,-5.3722,-5.3663,-5.3664,-5.3673,-5.3794,-5.3799,-5.3808,-5.3724,-5.3725,-5.3727,-5.3791,0,-5.3207,-5.3291,-5.3311,-5.3384,-5.3427,-5.3437,-5.3478,-5.3514,-5.3536,-5.3575,-5.3599,-5.3644,-5.3634,-5.3651,-5.3683,-5.3709,-5.3746,-5.3705,-5.3762,-5.3764,-5.3752,-5.382,-5.3824,-5.3883,-5.3799,-5.3801,-5.3802,0,-5.3283,-5.3325,-5.3402,-5.3449,-5.3468,-5.3505,-5.3552,-5.359,-5.3631,-5.3645,-5.3678,-5.3688,-5.3738,-5.3718,-5.3788,-5.3759,-5.3784,-5.38,-5.3803,-5.381,-5.3786,-5.3829,-5.3902,-5.3912,-5.3815,-5.3814,-5.3813,0,-5.3315,-5.339,-5.3446,-5.3468,-5.3523,-5.3549,-5.3574,-5.3614,-5.3643,-5.3684,-5.3703,-5.375,-5.3776,-5.3812,-5.3835,-5.3817,-5.3903,-5.3884,-5.3917,-5.3916,-5.3935,-5.3933,-5.4014,-5.3949,-5.3949,-5.3949,-5.3949,0,-5.3376,-5.3423,-5.3461,-5.3496,-5.3549,-5.3572,-5.3625,-5.3649,-5.3685,-5.3725,-5.3736,-5.3773,-5.3801,-5.3842,-5.386,-5.3916,-5.3927,-5.394,-5.3945,-5.394,-5.3938,-5.3957,-5.3953,-5.3952,-5.3951,-5.3951,-5.395,0,-5.342,-5.3447,-5.3509,-5.3557,-5.3571,-5.3608,-5.365,-5.3684,-5.3706,-5.3757,-5.377,-5.3806,-5.3855,-5.3882,-5.3943,-5.3955,-5.4019,-5.402,-5.4005,-5.4007,-5.4038,-5.4035,-5.4134,-5.4149,-5.4074,-5.4074,-5.4075,0,-5.3457,-5.3494,-5.3546,-5.3574,-5.36,-5.3644,-5.3674,-5.3698,-5.3729,-5.378,-5.3809,-5.3859,-5.3901,-5.3979,-5.401,-5.4058,-5.4061,-5.4093,-5.4068,-5.4063,-5.4063,-5.4061,-5.4065,-5.4097,-5.4098,-5.4098,-5.4099,0,-5.3521,-5.3533,-5.3576,-5.3625,-5.366,-5.3699,-5.3738,-5.376,-5.3791,-5.3825,-5.3877,-5.3909,-5.3973,-5.4023,-5.4073,-5.4098,-5.4104,-5.4106,-5.4117,-5.4112,-5.4102,-5.4109,-5.4017,-5.4104,-5.4103,-5.4103,-5.4103,-5.4102,-5.3564,-5.3598,-5.364,-5.3688,-5.372,-5.3757,-5.3792,-5.3819,-5.3863,-5.3917,-5.3929,-5.3983,-5.4025,-5.4093,-5.412,-5.4163,-5.4157,-5.4171,-5.4175,-5.4179,-5.4181,-5.4095,-5.4172,-5.4172,-5.4172,-5.4172,-5.4172,0,-5.3629,-5.3658,-5.3702,-5.3756,-5.3794,-5.3797,-5.384,-5.3872,-5.392,-5.3959,-5.4,-5.4059,-5.4108,-5.4144,-5.4194,-5.4222,-5.4226,-5.4235,-5.4233,-5.4239,-5.4183,-5.4169,-5.4231,-5.4231,-5.4231,-5.4231,-5.4231,-5.4231,-5.3668,-5.3726,-5.3743,-5.3817,-5.3846,-5.3899,-5.3924,-5.3958,-5.3989,-5.4056,-5.4097,-5.412,-5.4158,-5.4211,-5.4257,-5.4266,-5.4284,-5.4293,-5.4302,-5.4249,-5.4243,-5.4237,-5.4225,-5.4296,-5.4296,-5.4355,-5.4356,-5.4356]}]]